SL-16 DEB, 29097

Orbit data source: Space-Track

SL-16 DEB, 29097 is space debris in LEO originally from a launch on Fri, 26 Mar 1993 UTC launched from the Tyuratam Missile And Space Complex (TTMTR). Debris objects in space refer to the collection of defunct objects orbiting the Earth. Examples of debris include non-operational satellites, rocket bodies, and fragments generated from explosions, collisions, or faulty payload assembly.

Loading next visibility...
Identifier
29097, 1993-016AL
Orbit
LEO
Last TLE update
3 days ago
Origin
Manufacturer
Unknown
Mission
Spacecraft
Bus & Motor
Unknown
Mass
Unknown
Launch date (UTC)
1993-03-26 (32 years ago)
Launch vehicle
Unknown
Launch site
Tyuratam Missile And Space Complex (TTMTR)
Object type
Payload
Rocket body
Debris
Shape & HBR
Unknown
Radar Cross Section
Small (<0.1 m²)

Expand to show TLE details & history

TLE from 3 days ago
0 SL-16 DEB
1 29097U 93016AL  25126.10531456  .00000261  00000-0  21477-3 0  9990
2 29097  71.0055 281.6244 0124379 123.5599 358.4397 13.94461157217396
Epoch: 2025-05-06T02:31Z
Definitive object data (Epoch: 2025-05-06T02:31:39.177Z)
Latitude
53.45497°
Longitude
171.98829°
Altitude
830.58 km
Speed
7.489 km/s
True Right ascension
04h 56m 26s
True Declination
53° 17' 31"
Sunlit
Object was in daylight at TLE epoch
Visualization TLE readout
Latitude
-15.4646°
Longitude
7.71743°
Altitude
982.419 km
Speed
7.328 km/s
Apparent Right ascension
20h 46m 32s
Apparent Declination
-42° 30' 58"
Sunlit
Object is in full shadow
Visualization observer readout
Local Sidereal Time
13:46:00
Azimuth
119.029° SE
Elevation
-35.535°
Doppler factor
1
Orbital elements
Apogee altitude
1,001.644 km
Perigee altitude
820.321 km
Semi-major axis
7,289.12 km
Eccentricity
0.0124379
Inclination
71.0055°
RAAN
281.6244°
Arg. of periapsis
123.5599°
True anomaly
358.40028°
Mean anomaly
358.4397°
Eccentric anomaly
358.42005°
Mean motion
3.48763 °/min
BSTAR
0.00021477
Orbital period
103.22 mins
Loading maneuver chart data...
Loading SW <> Apogee altitude chart data...
Loading historical data...
Loading historical data...
Loading historical data...
Loading historical data...
Loading historical data...
Loading historical data...
Loading historical data...

SL-16 DEB Visibility forecast

Observer location: undefined°, undefined°

Span
Click to sort rows by Start time (UTC) header in descending order
Start Az.
Max El. time (UTC)
Max El. Az.
Max El.
End time (UTC)
End Az.
11 mins2025-05-09 10:58:18.816Z193.119° SSW2025-05-09 11:04:18.816Z81.259° E43.26°2025-05-09 11:09:18.816Z27.641° NE
6 mins2025-05-09 12:47:18.816Z275.587° WNW2025-05-09 12:50:18.816Z311.145° NW17.333°2025-05-09 12:53:18.816Z345.68° N
8 mins2025-05-09 20:02:18.816Z1.805° NNE2025-05-09 20:06:18.816Z65.576° ENE29.161°2025-05-09 20:10:18.816Z119.75° SE
7 mins2025-05-09 21:48:18.816Z305.292° NW2025-05-09 21:51:18.816Z259.715° W27.16°2025-05-09 21:55:18.816Z201.963° SSW
|